SCP
0 0 0 0 0 0 0 0 0 0 0 0 0 0 0 0 0 0 0 0 0 0 0 0 0 0 0 0 0 0 0 0 0 0 0 0 0 0 0 0 0 0 0 0
0 0 0 0 0 0 0 0 0 0 0 0 0 0 0 0 0 0 0 0 0 0 0 0 0 0 0 0 0 0 0 0 0 0 0 0 0 0 0 0 0 0 0 0
0 0 0 0 0 0 0 0 0 0 0 0 0 0 0 0 0 0 0 0 0 0 0 0 0 0 0 0 0 0 0 0 0 0 0 0 0 0 0 0 0 0 0 0
0 0 0 0 0 0 0 0 0 0 0 0 0 0 0 0 0 0 0 0 0 0 0 0 0 0 0 0 0 0 0 0 0 0 0 0 0 0 0 0 0 0 0 0
0 0 0 0 0 0 0 0 0 0 0 0 0 0 0 0 0 0 0 0 0 0 0 0 0 0 0 0 0 0 0 0 0 0 0 0 0 0 0 0 0 0 0 0
0 0 0 0 0 0 0 0 0 0 0 0 0 0 0 0 0 0 0 0 0 0 0 0 0 0 0 0 0 0 0 0 0 0 0 0 0 0 0 0 0 0 0 0
0 0 0 0 0 0 0 0 0 0 0 0 0 0 0 0 0 0 0 0 0 0 0 0 0 0 0 0 0 0 0 0 0 0 0 0 0 0 0 0 0 0 0 0
0 0 0 0 0 0 0 0 0 0 0 0 0 0 0 0 0 0 0 0 0 0 0 0 0 0 0 0 0 0 0 0 0 0 0 0 0 0 0 0 0 0 0 0
0 0 0 0 0 0 0 0 0 0 0 0 0 0 0 0 0 0 0 0 0 0 0 0 0 0 0 0 0 0 0 0 0 0 0 0 0 0 0 0 0 0 0 0
0 0 0 0 0 0 0 0 0 0 0 0 0 0 0 0 0 0 0 -0 0 0 0 0 0 0 0 0 0 0 0 0 0 0 0 0 0 0 0 0 0 0 0 0
0 0 0 0 0 0 0 0 0 0 0 0 0 0 0 0 0 0 0 0 0 0 0 0 0 0 0 0 0 0 0 0 0 0 0 0 0 0 0 0 0 0 0 0
0 0 0 0 0 0 0 0 0 0 0 0 0 0 0 0 0 0 0 0 0 0 0 0 0 0 0 0 0 0 0 0 0 0 0 0 0 0 0 0 0 0 0 0
0 0 0 0 0 0 0 0 0 0 0 0 0 0 0 0 0 0 0 0 0 0 0 0 0 0 0 0 0 0 0 0 0 0 0 0 0 0 0 0 0 0 0 0
0 0 0 0 0 0 0 0 0 0 0 0 0 0 0 0 0 0 0 0 0 0 0 0 0 0 0 0 0 0 0 0 0 0 0 0 0 0 0 0 0 0 0 0
0 0 0 0 0 0 0 0 0 0 0 0 0 0 0 0 0 0 0 0 0 0 0 0 0 0 0 0 0 0 0 0 0 0 0 0 0 0 0 0 0 0 0 0
0 0 0 0 0 0 0 0 0 0 0 0 0 0 0 0 0 0 0 0 0 0 0 0 0 0 0 0 0 0 0 0 0 0 0 0 0 0 0 0 0 0 0 0
0 0 0 0 0 0 0 0 0 0 0 0 0 0 0 0 0 0 0 0 0 0 0 0 0 0 0 0 0 0 0 0 0 0 0 0 0 0 0 0 0 0 0 0
0 0 0 0 0 0 0 0 0 0 0 0 0 0 0 0 0 0 0 0 0 0 0 0 0 0 0 0 0 0 0 0 0 0 0 0 0 0 0 0 0 0 0 0
0 0 0 0 0 0 0 0 0 0 0 0 0 0 0 0 0 0 0 0 0 0 0 0 0 0 0 0 0 0 0 0 0 0 0 0 0 0 0 0 0 0 0 0
0 0 0 0 0 0 0 0 0 0 0 0 0 0 0 0 0 0 0 0 0 0 0 0 0 0 0 0 0 0 0 0 0 0 0 0 0 0 0 0 0 0 0 0
0 0 0 0 0 0 0 0 0 0 0 0 0 0 0 0 0 0 0 0 0 0 0 0 0 0 0 0 0 0 0 0 0 0 0 0 0 0 0 0 0 0 0 0
0 0 0 0 0 0 0 0 0 0 0 0 0 0 0 0 0 0 0 0 0 0 0 0 0 0 0 0 0 0 0 0 0 0 0 0 0 0 0 0 0 0 0 0
0 0 0 0 0 0 0 0 0 0 0 0 0 0 0 0 0 0 0 0 0 0 0 0 0 0 0 0 0 0 0 0 0 0 0 0 0 0 0 0 0 0 0 0
0 0 0 0 0 0 0 0 0 0 0 0 0 0 0 0 0 0 0 0 0 0 0 0 0 0 0 0 0 0 0 0 0 0 0 0 0 0 0 0 0 0 0 0
0 0 0 0 0 0 0 0 0 0 0 0 0 0 0 0 0 0 0 0 0 0 0 0 0 0 0 0 0 0 0 0 0 0 0 0 0 0 0 0 0 0 0 0
0 0 0 0 0 0 0 0 0 0 0 0 0 0 0 0 0 0 0 0 0 0 0 0 0 0 0 0 0 0 0 0 0 0 0 0 0 0 0 0 0 0 0 0
0 0 0 0 0 0 0 0 0 0 0 0 0 0 0 0 0 0 0 0 0 0 0 0 0 0 0 0 0 0 0 0 0 0 0 0 0 0 0 0 0 0 0 0
Wind_Speed
9 9 7 8 9 10 10 9 8 6 5 2 1 2 2 2 2 1 2 2 2 3 3 3 2 2 2 2 2 2 2 2 2 2 2 2 2 2 2 2 2 2 2 2
10 10 9 10 10 11 11 10 9 8 6 3 1 2 1 1 1 1 1 1 1 2 2 2 2 2 2 2 2 2 2 2 2 1 1 1 1 2 2 1 2 1 2 2
8 8 9 10 8 9 8 8 7 7 3 0 0 1 2 1 1 1 1 0 0 2 2 2 2 1 2 2 1 1 2 2 2 2 1 1 2 1 1 1 1 1 2 1
7 7 9 3 1 3 5 5 4 3 0 1 1 2 1 1 1 0 0 0 1 1 2 1 1 1 1 1 2 2 1 1 2 2 1 1 1 1 1 1 1 2 2 1
5 7 7 4 2 1 2 4 2 1 2 1 0 2 1 1 2 1 1 1 1 1 1 1 1 1 2 2 2 2 2 2 2 2 2 1 1 1 1 2 2 2 2 2
6 7 5 1 3 2 1 3 1 1 0 1 0 2 1 2 2 2 2 2 2 2 1 1 1 2 2 1 1 2 1 1 1 1 2 2 2 2 1 1 2 2 2 2
8 7 4 2 2 0 2 0 2 1 1 0 2 1 1 2 2 1 1 1 1 2 1 0 1 1 2 2 1 1 0 0 1 1 2 1 1 1 1 1 1 2 2 2
5 6 3 3 1 1 1 2 1 1 0 1 2 2 2 2 1 1 1 0 1 1 1 0 0 1 1 1 1 1 1 1 1 1 1 1 1 1 1 1 1 2 2 2
3 2 1 1 1 1 2 2 2 2 2 1 1 1 2 2 1 1 1 1 0 1 1 1 1 1 1 1 1 1 1 1 1 1 1 1 1 1 1 1 1 2 1 2
4 4 2 1 2 2 3 3 2 2 1 1 1 2 2 2 2 2 2 1 1 2 2 1 1 1 1 1 1 2 1 1 1 1 0 0 0 0 1 1 1 2 2 2
6 4 3 2 2 2 2 1 1 1 1 1 1 2 2 2 2 2 1 1 1 2 2 2 1 1 1 1 1 1 1 1 1 0 0 0 1 1 1 1 1 2 2 1
4 3 3 3 2 2 2 1 1 2 2 1 2 3 3 2 1 1 1 1 1 1 1 1 1 1 1 1 2 2 1 1 1 1 1 1 1 1 2 2 2 2 3 2
5 4 3 3 3 3 2 2 2 2 2 2 2 2 2 2 1 1 1 1 1 2 1 1 1 1 1 1 1 2 2 1 1 1 1 1 1 1 1 2 3 3 3 2
3 3 3 3 2 2 3 2 2 2 2 2 2 2 2 2 1 1 1 1 2 1 1 1 1 1 0 0 1 2 1 1 1 1 1 1 2 2 2 2 2 2 3 3
3 3 3 2 2 2 2 2 2 2 2 2 2 2 2 2 2 2 1 1 2 1 1 1 1 0 0 0 1 1 1 1 1 1 1 2 2 2 2 2 2 2 1 1
3 3 3 2 2 3 2 2 3 3 2 2 2 3 2 2 2 1 1 2 2 1 1 1 1 0 1 1 1 1 1 2 2 1 1 1 1 1 1 2 2 2 1 1
4 4 4 3 3 3 3 3 3 2 2 2 2 2 2 2 2 2 2 2 1 2 1 1 1 0 0 1 1 1 1 1 2 2 2 2 1 1 2 2 2 2 2 2
3 3 3 3 3 2 2 2 2 2 2 3 3 2 2 2 2 2 2 1 1 1 1 0 0 0 1 1 1 1 1 1 1 1 1 1 2 2 2 2 2 1 1 1
3 3 2 2 2 2 2 2 2 2 2 2 2 2 2 2 1 1 1 1 2 2 1 1 0 1 1 0 1 1 1 1 1 1 2 2 2 2 2 2 2 1 1 1
2 2 2 2 2 2 2 2 2 2 2 2 2 2 2 2 1 1 1 2 1 1 0 0 1 1 1 0 1 1 1 1 2 2 2 2 2 2 2 2 2 1 1 1
1 1 2 2 2 2 2 2 1 2 2 2 2 2 2 2 1 1 1 2 1 1 1 1 0 0 0 1 1 1 1 2 2 2 2 2 2 2 2 2 2 1 1 1
2 2 2 1 1 2 2 2 2 2 2 2 2 2 2 2 2 2 1 1 1 1 0 0 0 1 1 1 1 1 1 1 1 1 2 2 1 1 2 2 2 1 1 1
2 2 2 1 2 2 2 2 2 2 2 2 2 2 2 2 1 1 2 1 1 0 1 0 1 1 2 1 1 1 1 1 1 1 1 1 1 1 1 1 1 1 1 1
2 2 2 2 1 2 2 2 2 1 1 1 1 2 2 1 1 1 1 1 0 0 0 1 1 2 2 1 1 1 1 1 1 1 1 1 1 1 1 1 1 1 1 1
2 1 2 2 2 2 2 2 1 1 1 1 1 1 1 1 1 1 1 0 1 1 0 0 1 2 1 1 1 1 1 1 0 0 0 0 0 1 1 1 1 1 1 1
1 1 1 1 2 1 1 1 1 1 1 1 1 1 1 1 1 1 0 1 1 0 1 0 0 1 1 1 1 1 1 1 1 0 1 1 1 0 1 1 1 1 0 0
1 1 1 1 1 1 1 1 1 1 1 1 1 1 1 1 1 1 1 1 0 0 0 0 0 0 0 0 1 1 1 1 1 1 1 1 1 1 1 1 1 1 1 1
Wind_Direction
270 273 268 264 266 263 258 260 262 262 262 256 156 122 124 130 130 114 98 105 132 144 152 159 162 163 150 150 156 154 158 182 202 204 187 192 205 214 212 223 231 229 238 227
275 265 260 260 254 261 263 265 260 261 264 270 154 122 131 149 133 110 94 33 152 151 157 167 170 169 159 164 172 163 167 176 181 187 191 201 204 217 220 223 236 233 238 228
275 276 272 258 245 240 247 254 257 260 268 264 310 162 174 156 146 137 152 43 293 180 185 185 181 183 181 168 165 173 176 170 167 181 196 206 212 204 210 232 249 244 248 241
272 274 259 260 261 242 247 252 261 283 10 334 2 328 255 132 119 136 115 88 309 212 181 179 180 170 150 158 172 182 184 179 174 178 177 175 195 212 218 232 237 250 251 236
260 263 266 261 264 223 240 260 250 260 268 274 91 304 269 102 88 35 26 10 337 295 181 187 182 166 156 176 190 191 196 197 182 175 177 190 212 225 237 239 237 230 235 216
254 263 263 257 60 37 305 256 146 154 170 3 1 264 273 70 83 65 35 10 352 328 228 187 176 166 177 204 203 201 199 199 178 180 185 200 217 221 226 231 243 236 230 224
249 259 266 90 96 235 245 251 83 82 58 324 269 302 3 25 39 51 35 7 356 336 327 89 148 166 191 209 209 199 155 202 195 195 197 204 214 228 228 234 248 257 250 243
245 250 243 113 146 206 351 8 359 9 9 6 1 359 357 356 351 357 342 333 333 324 315 357 290 220 213 213 180 121 137 210 228 209 215 206 191 229 235 241 245 254 262 263
254 258 32 277 319 6 342 320 333 359 21 37 339 300 303 297 289 280 277 271 275 277 266 246 226 240 239 203 148 134 143 187 217 206 215 191 182 214 254 257 251 259 259 262
265 249 267 294 313 328 323 329 358 23 12 347 289 286 285 281 274 271 255 247 256 244 218 221 218 207 225 171 147 147 173 191 202 187 183 33 19 242 239 261 269 270 268 268
271 278 293 277 301 294 298 320 339 343 317 304 274 273 276 275 269 264 253 227 234 246 213 201 193 198 189 183 157 185 197 187 180 166 166 79 10 346 323 284 247 256 265 270
259 269 271 279 297 306 305 308 320 319 313 298 276 271 272 270 262 243 246 229 244 243 222 221 204 186 166 171 184 203 201 190 176 170 161 158 149 349 349 305 307 296 264 248
282 291 293 303 323 334 325 328 329 315 296 283 281 277 274 270 257 264 269 261 269 252 235 240 234 204 170 182 213 220 220 193 171 181 193 206 212 215 271 311 312 304 281 259
310 307 297 299 304 320 313 313 309 305 298 290 287 282 277 272 254 251 268 276 266 255 262 259 237 215 183 198 241 244 226 183 187 203 212 223 231 238 233 238 270 289 277 253
288 287 272 279 289 297 305 307 296 287 297 303 300 280 268 262 254 251 264 287 275 259 271 275 268 270 22 283 256 249 220 174 191 216 230 235 235 241 243 249 258 270 268 264
272 270 262 260 258 270 276 278 281 285 289 290 287 286 274 257 253 255 265 262 249 249 259 261 259 257 43 315 277 258 230 218 225 229 244 250 243 248 252 251 258 256 245 230
258 257 258 254 255 256 259 262 266 276 285 286 289 295 293 266 244 238 241 238 244 255 250 243 235 159 228 243 252 247 252 229 224 239 242 242 241 243 251 255 261 263 253 223
269 273 270 268 279 275 270 276 282 284 284 289 291 273 262 250 244 253 263 252 247 258 248 175 81 266 252 215 205 233 251 250 232 239 252 253 250 244 250 255 253 255 264 229
280 283 281 278 280 277 279 284 286 288 295 293 281 274 264 262 266 268 271 264 253 259 257 151 292 265 274 325 337 248 240 247 264 255 242 254 258 252 244 240 243 243 244 228
281 300 305 301 299 289 284 283 289 294 291 277 278 286 291 287 285 284 285 276 257 243 236 104 160 228 255 278 310 269 263 262 257 256 253 238 237 240 236 233 236 239 240 229
296 297 292 295 297 293 287 290 298 295 301 298 284 276 280 287 294 285 272 276 282 39 34 47 313 307 11 357 304 267 257 260 260 259 255 253 244 233 229 230 233 234 235 237
290 292 292 290 288 293 301 297 293 299 303 305 309 305 298 297 300 301 293 285 336 49 355 332 82 35 355 338 280 281 284 283 277 271 265 256 244 235 232 233 235 237 232 228
287 285 285 280 271 277 288 292 292 292 290 289 293 297 296 300 313 306 296 327 47 18 326 9 43 11 344 334 300 293 284 286 287 285 285 282 268 247 237 236 238 236 229 231
295 289 290 290 286 280 277 291 298 301 307 310 309 307 303 301 308 309 314 7 28 77 37 73 356 329 325 316 300 292 285 279 279 288 305 325 323 300 278 266 266 266 243 238
295 297 296 289 282 277 281 290 298 300 307 307 301 304 301 305 296 302 315 347 102 109 17 318 302 298 300 298 291 284 280 275 272 250 338 36 356 321 314 301 283 282 275 259
305 309 307 302 304 303 297 291 283 277 276 285 293 303 309 306 290 276 305 67 73 348 331 337 292 279 282 292 297 310 337 346 344 37 78 88 83 30 357 353 348 330 302 291
287 284 285 290 308 316 312 298 288 287 281 280 291 299 297 317 360 6 32 47 37 354 339 342 302 286 323 351 2 353 6 27 48 62 71 71 66 61 30 351 326 318 317 305